Weather in Sant Carles de la Ràpita

Spain     40°37′03″N   0°35′22″E
В апреле 2022 года жителям России запретили посещать сайт meteo.paraplan.net по решению Генеральной прокуратуры. Аудитория сайта уменьшилась в 10 раз. Владельцы сайта не видят смысла в поддержке погодного сервера в таких условиях. Сайт будет закрыт в октябре.
temp.,
°C
wind,
m/s
gust,
m/s
humid.,
%
clouds,
%
prec.,
mm/h
press.,
hPa
HPBL,
m
25 september, sun
sun2523:00+21nw45470 0.0 1012370
02:00+19nnw46483 0.0 1012319
05:00+18n455354 0.0 1012262
08:00+18nnw445089 0.0 1013430
11:00+20n444418 0.0 1014660
14:00+23ene44392 0.0 10131098
17:00+23e864239 0.0 10121145
20:00+21ene56610 0.1 1013556
26 september, mon
mon2623:00+20ene34665 0.2 1014544
02:00+19n346499 0.3 1014403
05:00+18nnw335343 0.0 1013202
08:00+17nw335821 0.0 1013182
11:00+20nnw23441 0.0 1015581
14:00+22sse33450 0.0 1014987
17:00+22s555145 0.0 1013622
20:00+21ssw566325 0.0 1013386
27 september, tue
tue2723:00+21w36480 0.1 1014440
02:00+20nw712490 0.1 1014604
05:00+19wnw815510 0.0 1014724
08:00+19wnw713523 0.0 1013740
11:00+23nw914430 0.0 10131621
14:00+25nw1012401 0.0 10122052
17:00+25nw1013370 0.0 10111741
20:00+22nw10164153 0.0 10121122
28 september, wed
wed2823:00+21nw13195555 0.0 1012920
02:00+21wnw11165884 0.0 10121017
05:00+21nw1015575 0.0 1011996
08:00+21nw1015554 0.0 1010914
11:00+23nw91346100 0.0 10111358
14:00+25nw91142100 0.0 10101695
17:00+26nw684033 0.0 10071015
20:00+23wnw48445 0.0 1007305
29 september, thu
thu2923:00+21wnw594951 0.0 1009500
02:00+20nw7115081 0.0 1008487
05:00+20nw71151100 0.0 1006520
08:00+20nw71248100 0.0 1005615
11:00+21nw91247100 0.0 1006827
14:00+23nw9838100 0.0 10051735
17:00+24nnw893890 0.0 10042278
20:00+22nw6114135 0.0 10051113